Bardufoss, Norway

2:55 PM CEST on August 17, 2017 (GMT +0200)
Bardufoss Air Base

Weather History for ENDU - October, 2013

Change the Weather History Date:

Tuesday, October 22, 2013

  Actual Average Record
Temperature  
Mean Temperature 14 °F -  
Max Temperature 21 °F 31 °F 51 °F (2007)
Min Temperature 8 °F 20 °F 6 °F (2002)
Degree Days  
Heating Degree Days 50    
Moisture  
Dew Point 12 °F    
Average Humidity 88    
Maximum Humidity 93    
Minimum Humidity 80    
Precipitation  
Precipitation 0.00 in - - ()
Sea Level Pressure  
Sea Level Pressure 29.83 in    
Wind  
Wind Speed 1 mph ()    
Max Wind Speed 4 mph    
Max Gust Speed -    
Visibility 6.2 miles    
Events      
Averages and records for this station are not official NWS values.
T = Trace of Precipitation, MM = Missing Value Source: Averaged Metar Reports

Daily Weather History Graph

Daily Weather History Graph

Search for Another Location

Airport or City:

Trip Planner

Search our weather history database for the weather conditions in past years. The results will help you decide how hot, cold, wet, or windy it might be!

Date:

Astronomy

Oct. 22, 2013 Rise Set
Actual Time 8:22 AM CEST 4:36 PM CEST
Civil Twilight 7:19 AM CEST 5:38 PM CEST
Nautical Twilight 6:11 AM CEST 6:46 PM CEST
Astronomical Twilight 5:03 AM CEST 7:54 PM CEST
Moon 5:03 PM CEST (10/22) 1:32 PM CEST (10/22)
Length of Visible Light 10h 19m
Length of Day
8h 13m
Waning Gibbous, 88% of the Moon is Illuminated
Oct 22
Waning Gibbous
Oct 27
Last Quarter
Nov 3
New
Nov 10
First Quarter
Nov 17
Full

Hourly Weather History & Observations

Time (CEST) Temp. Windchill Dew Point Humidity Pressure Visibility Wind Dir Wind Speed Gust Speed Precip Events Conditions
12:50 AM 19.4 °F - 17.6 °F 93% 29.95 in 6.2 mi Variable 1.2 mph - N/A   Mostly Cloudy
1:50 AM 19.4 °F - 15.8 °F 86% 29.95 in 6.2 mi Variable 2.3 mph - N/A   Scattered Clouds
2:00 AM 18 °F - 16 °F 87% 29.98 in 47 mi NW 2.2 mph - -   Partly Cloudy
2:50 AM 15.8 °F - 12.2 °F 86% 29.95 in 6.2 mi Variable 1.2 mph - N/A   Scattered Clouds
3:50 AM 15.8 °F - 14.0 °F 93% 29.92 in 6.2 mi Variable 1.2 mph - N/A   Scattered Clouds
4:50 AM 14.0 °F - 12.2 °F 93% 29.92 in 6.2 mi Calm Calm - N/A   Partly Cloudy
5:20 AM 14.0 °F - 10.4 °F 86% 29.92 in 6.2 mi Calm Calm - N/A   Partly Cloudy
5:50 AM 12.2 °F - 10.4 °F 92% 29.92 in - Variable 1.2 mph - N/A   Clear
6:20 AM 12.2 °F - 8.6 °F 85% 29.92 in 6.2 mi Calm Calm - N/A   Partly Cloudy
6:50 AM 12.2 °F - 10.4 °F 92% 29.92 in 6.2 mi Variable 1.2 mph - N/A   Partly Cloudy
7:20 AM 12.2 °F - 10.4 °F 92% 29.92 in - Variable 1.2 mph - N/A   Clear
7:50 AM 10.4 °F - 6.8 °F 85% 29.89 in - Calm Calm - N/A   Clear
8:00 AM 11 °F - 9 °F 86% 29.94 in 47 mi Calm Calm - -   Partly Cloudy
8:20 AM 8.6 °F - 6.8 °F 92% 29.89 in - Variable 1.2 mph - N/A   Clear
8:50 AM 10.4 °F - 8.6 °F 92% 29.89 in - Variable 2.3 mph - N/A   Clear
9:20 AM 10.4 °F - 6.8 °F 85% 29.89 in - Variable 1.2 mph - N/A   Clear
9:50 AM 10.4 °F - 6.8 °F 85% 29.89 in - WNW 1.2 mph - N/A   Clear
10:20 AM 12.2 °F - 8.6 °F 85% 29.89 in - Calm Calm - N/A   Clear
10:50 AM 12.2 °F - 10.4 °F 92% 29.89 in - WSW 1.2 mph - N/A   Clear
11:20 AM 14.0 °F - 12.2 °F 93% 29.86 in - Variable 1.2 mph - N/A   Clear
11:50 AM 15.8 °F - 12.2 °F 86% 29.86 in - Calm Calm - N/A   Clear
12:20 PM 17.6 °F - 14.0 °F 86% 29.86 in - Calm Calm - N/A   Clear
12:50 PM 19.4 °F - 15.8 °F 86% 29.83 in - Variable 1.2 mph - N/A   Clear
1:20 PM 19.4 °F - 15.8 °F 86% 29.83 in - Variable 1.2 mph - N/A   Clear
1:50 PM 19.4 °F - 15.8 °F 86% 29.83 in - Variable 1.2 mph - N/A   Clear
2:00 PM 19 °F - 16 °F 81% 29.84 in 47 mi West 2.2 mph - -   Partly Cloudy
2:20 PM 19.4 °F - 15.8 °F 86% 29.80 in - Variable 1.2 mph - N/A   Clear
2:50 PM 21.2 °F - 15.8 °F 80% 29.80 in - Variable 2.3 mph - N/A   Clear
3:20 PM 21.2 °F - 17.6 °F 86% 29.77 in - Variable 1.2 mph - N/A   Clear
3:50 PM 19.4 °F - 15.8 °F 86% 29.77 in - Calm Calm - N/A   Clear
4:20 PM 19.4 °F - 15.8 °F 86% 29.77 in - Variable 1.2 mph - N/A   Clear
4:50 PM 17.6 °F - 14.0 °F 86% 29.74 in - Variable 2.3 mph - N/A   Clear
5:20 PM 17.6 °F - 14.0 °F 86% 29.74 in - Variable 1.2 mph - N/A   Clear
5:50 PM 15.8 °F - 14.0 °F 93% 29.74 in - West 2.3 mph - N/A   Clear
6:20 PM 14.0 °F - 12.2 °F 93% 29.71 in - Variable 1.2 mph - N/A   Clear
6:50 PM 14.0 °F - 10.4 °F 86% 29.71 in - Variable 1.2 mph - N/A   Clear
7:50 PM 12.2 °F - 10.4 °F 92% 29.68 in - Variable 1.2 mph - N/A   Clear
8:00 PM 14 °F - 11 °F 84% 29.72 in 47 mi NW 2.2 mph - -   Partly Cloudy
8:50 PM 14.0 °F - 10.4 °F 86% 29.65 in 6.2 mi Variable 2.3 mph - N/A   Partly Cloudy
9:50 PM 10.4 °F - 6.8 °F 85% 29.65 in 6.2 mi Variable 2.3 mph - N/A   Scattered Clouds
10:50 PM 12.2 °F 6.1 °F 8.6 °F 85% 29.62 in - West 3.5 mph - N/A   Clear
11:50 PM 14.0 °F - 10.4 °F 86% 29.59 in - Variable 2.3 mph - N/A   Clear